Laredo, TX

11:44 PM CST on December 17, 2017 (GMT -0600)
Laredo International

Weather History for KLRD - October, 2012

Change the Weather History Date:

Tuesday, October 9, 2012

  Actual Average Record
Temperature  
Mean Temperature 79 °F 78 °F  
Max Temperature 90 °F 88 °F 105 °F (1926)
Min Temperature 67 °F 67 °F 42 °F (2000)
Degree Days  
Heating Degree Days 0 0  
Month to date heating degree days 2 0  
Since 1 July heating degree days 2 1  
Cooling Degree Days 14 13  
Month to date cooling degree days 113 122  
Year to date cooling degree days 4543 3907  
Growing Degree Days 27 (Base 50)    
Moisture  
Dew Point 61 °F    
Average Humidity 59    
Maximum Humidity 76    
Minimum Humidity 42    
Precipitation  
Precipitation 0.00 in 0.09 in 1.90 in (1990)
Month to date precipitation T 0.74  
Year to date precipitation 8.76 16.66  
Sea Level Pressure  
Sea Level Pressure 29.99 in    
Wind  
Wind Speed 10 mph (SSE)    
Max Wind Speed 18 mph    
Max Gust Speed 23 mph    
Visibility 10 miles    
Events      
T = Trace of Precipitation, MM = Missing Value Source: NWS Daily Summary

Daily Weather History Graph

Daily Weather History Graph

Search for Another Location

Airport or City:

Trip Planner

Search our weather history database for the weather conditions in past years. The results will help you decide how hot, cold, wet, or windy it might be!

Date:

Astronomy

Oct. 09, 2012 Rise Set
Actual Time 7:34 AM CDT 7:14 PM CDT
Civil Twilight 7:11 AM CDT 7:37 PM CDT
Nautical Twilight 6:44 AM CDT 8:05 PM CDT
Astronomical Twilight 6:17 AM CDT 8:32 PM CDT
Moon 1:43 AM CDT (10/9) 3:15 PM CDT (10/9)
Length of Visible Light 12h 26m
Length of Day
11h 39m
Last Quarter, 36% of the Moon is Illuminated
Oct 9
Last Quarter
Oct 15
New
Oct 21
First Quarter
Oct 29
Full
Nov 6
Last Quarter

Hourly Weather History & Observations

Time (CDT) Temp. Heat Index Dew Point Humidity Pressure Visibility Wind Dir Wind Speed Gust Speed Precip Events Conditions
12:56 AM 66.9 °F - 52.0 °F 59% 30.07 in 10.0 mi South 6.9 mph - N/A   Overcast
1:56 AM 66.9 °F - 52.9 °F 61% 30.06 in 10.0 mi SSE 8.1 mph - N/A   Overcast
2:56 AM 66.9 °F - 52.9 °F 61% 30.05 in 10.0 mi SSE 6.9 mph - N/A   Overcast
3:56 AM 66.9 °F - 52.9 °F 61% 30.04 in 10.0 mi South 8.1 mph - N/A   Overcast
4:56 AM 66.9 °F - 52.9 °F 61% 30.02 in 10.0 mi SSE 8.1 mph - N/A   Overcast
5:56 AM 66.9 °F - 52.9 °F 61% 30.02 in 10.0 mi SE 6.9 mph - N/A   Overcast
6:56 AM 66.9 °F - 52.9 °F 61% 30.03 in 10.0 mi South 9.2 mph - N/A   Overcast
7:56 AM 66.9 °F - 56.8 °F 70% 30.03 in 9.0 mi South 9.2 mph - N/A   Overcast
8:56 AM 68.0 °F - 55.9 °F 65% 30.05 in 8.0 mi ESE 4.6 mph - N/A   Overcast
9:56 AM 68.9 °F - 57.9 °F 68% 30.06 in 4.0 mi ESE 8.1 mph - N/A   Haze
10:42 AM 71.6 °F - 60.8 °F 69% 30.09 in 6.0 mi SSE 8.1 mph - N/A   Haze
10:56 AM 72.9 °F - 61.9 °F 68% 30.06 in 10.0 mi SSE 10.4 mph - N/A   Overcast
11:56 AM 77.0 °F - 64.9 °F 66% 30.04 in 10.0 mi SSE 10.4 mph - N/A   Overcast
12:56 PM 79.9 °F - 64.9 °F 60% 30.01 in 10.0 mi SSE 11.5 mph - N/A   Overcast
1:39 PM 82.4 °F 84.6 °F 66.2 °F 58% 30.01 in 10.0 mi SSE 12.7 mph 19.6 mph N/A   Mostly Cloudy
1:56 PM 83.8 °F 86.0 °F 65.8 °F 55% 29.97 in 10.0 mi South 13.8 mph - N/A   Scattered Clouds
2:56 PM 86.9 °F 88.9 °F 65.8 °F 49% 29.93 in 10.0 mi SSE 16.1 mph 20.7 mph N/A   Partly Cloudy
3:56 PM 88.9 °F 90.7 °F 64.9 °F 45% 29.91 in 10.0 mi South 12.7 mph - N/A   Clear
4:56 PM 88.9 °F 89.7 °F 63.0 °F 42% 29.89 in 10.0 mi South 13.8 mph - N/A   Clear
5:56 PM 88.9 °F 89.7 °F 63.0 °F 42% 29.89 in 10.0 mi South 13.8 mph - N/A   Clear
6:56 PM 88.0 °F 89.0 °F 63.9 °F 44% 29.89 in 10.0 mi SE 5.8 mph - N/A   Clear
7:56 PM 83.8 °F 84.7 °F 63.0 °F 49% 29.90 in 10.0 mi SE 3.5 mph - N/A   Clear
8:56 PM 81.9 °F 83.2 °F 63.9 °F 54% 29.93 in 10.0 mi ESE 4.6 mph - N/A   Clear
9:56 PM 79.9 °F - 64.9 °F 60% 29.95 in 10.0 mi SE 10.4 mph - N/A   Clear
10:56 PM 79.9 °F - 68.0 °F 67% 29.95 in 10.0 mi SE 12.7 mph - N/A   Clear
11:56 PM 79.0 °F - 70.9 °F 76% 29.95 in 10.0 mi SE 15.0 mph - N/A   Clear